Location: Unnamed
(45.7828°N, 108.5339°W)
Time: 21:29:08
(UTC-06:00)

Tianhe-1 - Visible Passes

Search period start: 17 June 2021 00:00
Search period end: 27 June 2021 00:00
Orbit: 375 x 386 km, 41.5° (Epoch: 18 June)

Date Brightness Start Highest point End Pass type
(mag) Time Alt. Az. Time Alt. Az. Time Alt. Az.
20 Jun 3.1 04:30:24 10° SSW 04:32:26 16° SSE 04:34:29 10° ESE visible
21 Jun 3.6 03:31:52 11° SSE 03:31:52 11° SSE 03:32:25 10° SE visible
22 Jun 2.6 04:05:37 16° SSW 04:07:02 22° SSE 04:09:32 10° ESE visible
23 Jun 3.4 03:07:15 14° SE 03:07:15 14° SE 03:08:13 10° ESE visible
23 Jun 1.9 04:39:36 10° WSW 04:42:30 34° S 04:45:24 10° ESE visible
24 Jun 2.1 03:41:00 25° S 03:41:37 28° SSE 03:44:23 10° ESE visible
25 Jun 3.5 02:42:38 13° ESE 02:42:38 13° ESE 02:43:14 10° ESE visible
25 Jun 1.7 04:14:45 14° WSW 04:17:07 36° S 04:20:03 10° ESE visible
26 Jun 1.9 03:16:26 32° SSE 03:16:26 32° SSE 03:19:05 10° ESE visible
